Location: Buchloe
(48.0161°N, 10.7316°E)
Time: 03:45:24
(UTC+02:00)

ISS - Pass Details

Date: 06 July 2025
Orbit: 413 x 417 km, 51.6° (Epoch: 12 July)

Event Time Altitude Azimuth Distance (km) Brightness Sun altitude
Rises 02:50:08 0° 283° (WNW) 2,356 0.0 -16.6°
Reaches altitude 10° 02:52:17 10° 290° (WNW) 1,493 -1.0 -16.5°
Maximum altitude 02:55:31 43° 4° (N) 594 -2.5 -16.2°
Drops below altitude 10° 02:58:44 10° 78° (ENE) 1,494 -0.5 -16.0°
Sets 03:00:54 0° 85° (E) 2,358 0.5 -15.9°
